Regional Weather Roundup
Issued by NWS

Home | Current Version | Previous Version | Text Only | Print | Product List | Glossary On
Versions: 1 2 3 4 5 6 7 8 9 10 11 12 13 14 15 16 17 18 19 20 21 22 23 24 25 26 27 28 29 30 31 32 33 34 35 36 37 38 39 40 41 42 43 44 45 46 47 48 49 50
000
ASUS43 KTOP 021759
RWRKS

WEATHER ROUNDUP FOR KANSAS
NATIONAL WEATHER SERVICE GOODLAND KS
1200 PM CST FRI DEC 02 2016

NOTE:  "FAIR" INDICATES FEW OR NO CLOUDS BELOW 12,000 FEET WITH NO
SIGNIFICANT WEATHER AND/OR OBSTRUCTIONS TO VISIBILITY.

KSZ001>006-013>018-027>032-041>047-021900-
NORTHWEST KANSAS

CITY           SKY/WX    TMP DP  RH WIND       PRES   REMARKS
GOODLAND       MOSUNNY   37  15  40 N6        30.22F
6HR MIN TEMP:  14; 6HR MAX TEMP:  38;

HAYS           MOSUNNY   42  21  43 N7        30.26R
HILL CITY      SUNNY     42  20  41 N7        30.27S
6HR MIN TEMP:  16; 6HR MAX TEMP:  42;

RUSSELL        MOSUNNY   41  22  46 VRB5      30.25R
6HR MIN TEMP:  17; 6HR MAX TEMP:  41;

$$

KSZ061>065-074>080-084>089-021900-
SOUTHWEST KANSAS

CITY           SKY/WX    TMP DP  RH WIND       PRES   REMARKS
DODGE CITY     MOSUNNY   48  12  23 CALM      30.25R
6HR MIN TEMP:  17; 6HR MAX TEMP:  48;

ELKHART          N/A     43  13  29 E8          N/A
GARDEN CITY    MOSUNNY   41  14  33 VRB3      30.24S
6HR MIN TEMP:  14; 6HR MAX TEMP:  41;

GREAT BEND     MOSUNNY   45  20  36 VRB3      30.26R
LIBERAL        MOSUNNY   45  18  33 NE8       30.22F
$$

KSZ066>073-081>083-090>101-021900-
SOUTHEAST KANSAS

CITY           SKY/WX    TMP DP  RH WIND       PRES   REMARKS
CHANUTE        MOSUNNY   53  23  31 E10       30.25F
6HR MIN TEMP:  39; 6HR MAX TEMP:  53;

COFFEYVILLE    SUNNY     55  28  35 E7        30.23F
6HR MIN TEMP:  32; 6HR MAX TEMP:  55;

HUTCHINSON     CLOUDY    45  25  45 CALM      30.26S
6HR MIN TEMP:  19; 6HR MAX TEMP:  46;

MEDICINE LODGE   N/A     46  24  42 NE7       30.24S
NEWTON         CLOUDY    47  26  44 E9        30.25
PARSONS        SUNNY     54  25  32 VRB7      30.24F
6HR MIN TEMP:  38; 6HR MAX TEMP:  56;

WICHITA INTL   CLOUDY    48  26  42 NE8       30.24F
6HR MIN TEMP:  28; 6HR MAX TEMP:  48;

WICHITA JABRA  CLOUDY    48  26  42 E6        30.24F
6HR MIN TEMP:  28; 6HR MAX TEMP:  48;

WINFIELD       CLOUDY    50  27  40 E8        30.23F
6HR MIN TEMP:  35; 6HR MAX TEMP:  50;

$$

KSZ007>012-019>026-033>040-048>060-102>105-021900-
NORTHEAST KANSAS

CITY           SKY/WX    TMP DP  RH WIND       PRES   REMARKS
CONCORDIA      SUNNY     41  28  60 NE8       30.27F
6HR MIN TEMP:  18; 6HR MAX TEMP:  41;

EMPORIA        SUNNY     47  25  42 E9        30.25F
6HR MIN TEMP:  27; 6HR MAX TEMP:  47;

LAWRENCE       SUNNY     46  28  49 VRB3      30.28F
6HR MIN TEMP:  16; 6HR MAX TEMP:  46;

MANHATTAN      SUNNY     45  26  47 E5        30.27F
6HR MIN TEMP:  17; 6HR MAX TEMP:  45;

OLATHE IND     SUNNY     48  26  42 CALM      30.27F
6HR MIN TEMP:  25; 6HR MAX TEMP:  48;

OLATHE EXE     SUNNY     47  25  42 E6        30.27F
6HR MIN TEMP:  26; 6HR MAX TEMP:  47;

SALINA         SUNNY     45  26  47 N6        30.27F
6HR MIN TEMP:  18; 6HR MAX TEMP:  45;

TOPEKA BILLARD SUNNY     46  28  49 CALM      30.28F
6HR MIN TEMP:  20; 6HR MAX TEMP:  46;

TOPEKA FORBES  SUNNY     49  28  44 E5        30.26F
6HR MIN TEMP:  21; 6HR MAX TEMP:  49;

$$



USA.gov is the U.S. government's official web portal to all federal, state and local government web resources and services.